ASTRA 1G
1 25071U 97076A   03013.00000000  .00000139  00000-0  10000-3 0  3879
2 25071   0.0122 319.8851 0002995  65.1991 106.1633  1.00273184 18772
INMARSAT 3-F5
1 25153U 98006B   03017.05055557  .00000158  00000-0  10000-3 0  8337
2 25153   0.4459 357.4673 0003810 313.0559 208.7476  1.00276883 18179
HOT BIRD 4
1 25237U 98013A   03013.80550721  .00000107  00000-0  10000-3 0  3250
2 25237   0.0242 116.4838 0007929 193.6371 105.7449  1.00276095 18185
NOAA 15
1 25338U 98030A   03017.98447004  .00000266  00000-0  13378-3 0  9728
2 25338  98.5512  40.9906 0011313  51.6396 308.5800 14.24229522243309
RESURS O1-N4
1 25394U 98043A   03018.22484027  .00000234  00000-0  12136-3 0  4268
2 25394  98.6369  96.7251 0001404 164.0785 196.0437 14.23865824235076
TMSAT
1 25396U 98043C   03016.42978806 -.00000043  00000-0  00000+0 0  8146
2 25396  98.6319  94.1746 0002082 210.1678 149.9382 14.23499736234813
TECHSAT 1B
1 25397U 98043D   03015.94654005 +.00000110 +00000-0 +68115-4 0 01340
2 25397 098.6280 092.6275 0000515 208.9633 151.1516 14.22951279234713
ASTRA 2A
1 25462U 98050A   03013.00000000  .00000169  00000-0  00000+0 0  5281
2 25462   0.0385 308.7109 0004824 280.8620 270.7162  1.00272094 16073
EUTELSAT W2
1 25491U 98056A   03015.86810854  .00000123  00000-0  00000+0 0  5641
2 25491   0.0572 107.9262 0003740 184.8614 150.6403  1.00275257 15712
HOT BIRD 5
1 25495U 98057A   03015.13542825  .00000175  00000-0  00000+0 0  4923
2 25495   0.0349 198.9702 0009463  93.1649 263.9846  1.00277875 15677
SEDSAT 1
1 25509U 98061B   03018.17992399  .00001633  00000-0  31847-3 0  7599
2 25509  31.4330 330.4229 0358030  28.7592 333.2186 14.27381329220822
PAN SAT
1 25520U 98064B   03015.40860678 +.00003875 +00000-0 +19936-3 0 06338
2 25520 028.4590 091.3557 0005234 341.3553 018.6785 15.13699711232401
ISS (ZARYA)
1 25544U 98067A   03018.19128670  .00026841  00000-0  33956-3 0  5970
2 25544  51.6359  53.7178 0005680  46.3349  63.7137 15.59295584237608
ORSTED
1 25635U 99008B   03018.08660926  .00001077  00000-0  27915-3 0  8098
2 25635  96.4476  11.8620 0146873  68.9537 292.7293 14.44777870205396
SUNSAT
1 25636U 99008C   03017.88818205  .00000509  00000-0  14031-3 0  6576
2 25636  96.4513  10.4338 0150726  75.9281 285.8610 14.42922471205243
UOSAT 12
1 25693U 99021A   03017.98456035  .00000763  00000-0  12913-3 0  6214
2 25693  64.5600 107.4555 0017359 316.9712  43.0040 14.76352484201591
FENGYUN 1C
1 25730U 99025A   03018.18477953  .00000041  00000-0  45290-4 0  7456
2 25730  98.6364  43.7634 0015363  92.2051 268.0885 14.11730164190206
ASTRA 1H
1 25785U 99033A   03013.00000000  .00000139  00000-0  10000-3 0  3685
2 25785   0.0122 319.8851 0002995  65.1991 106.1621  1.00273184 13136
TERRA
1 25994U 99068A   03018.13681289  .00000657  00000-0  15599-3 0  6123
2 25994  98.2034  94.8357 0001053  73.2725 286.8586 14.57094558164099
JAWSAT
1 26061U 00004A   03018.19481755  .00000794  00000-0  28117-3 0  7430
2 26061 100.2116  69.4331 0035340   8.8134 351.3660 14.37787133156025
OPAL
1 26063U 00004C   03017.70185015  .00000270  00000-0  11356-3 0  7007
2 26063 100.2167  66.4923 0037380  16.8437 343.3975 14.35467610155817
ASUSAT
1 26065U 00004E   03018.21692484  .00000281  00000-0  11740-3 0  7110
2 26065 100.2166  67.2439 0037558  16.8539 343.3879 14.35494007155889
GOES 11
1 26352U 00022A   03017.52733951 -.00000025  00000-0  10000-3 0  9798
2 26352   0.0669 111.6003 0004394 166.2334 276.0773  1.00262178  9916
EUTELSAT W4
1 26369U 00028A   03017.78991321  .00000169  00000-0  00000+0 0  3402
2 26369   0.0478  36.9870 0006019 241.7256 158.5214  1.00272317  9731
FENGYUN 2B
1 26382U 00032A   03017.58163794 -.00000312  00000-0  00000+0 0  7703
2 26382   0.6437 287.2288 0000454 150.8964 352.2160  1.00264379  9398
EUTELSAT W1
1 26487U 00052A   03016.79435765  .00000085  00000-0  10000-3 0  3441
2 26487   0.0366  92.6411 0003921 231.1725  87.9339  1.00275408  8692
ASTRA 2B
1 26494U 00054A   03013.00000000  .00000169  00000-0  00000+0 0  2517
2 26494   0.0178 354.5658 0005000 302.8402 202.8287  1.00276704  8557
NOAA 16
1 26536U 00055A   03017.69212897  .00000557  00000-0  32911-3 0  1692
2 26536  98.8968 326.2172 0011110  39.6814 320.5153 14.11886553119653
SAUDISAT 1A
1 26545U 00057A   03017.56165037  .00002187  00000-0  30804-3 0  3998
2 26545  64.5588 130.2904 0054166 243.8244 115.7220 14.78890002124484
UNISAT
1 26547U 00057C   03017.56400700  .00003786  00000-0  50698-3 0  4180
2 26547  64.5571 132.6374 0061211 246.3557 113.1050 14.79597630124451
TIUNGSAT 1
1 26548U 00057D   03016.41803962  .00003012  00000-0  39740-3 0  4021
2 26548  64.5568 127.0603 0047344 243.2006 116.4225 14.81148682124459
SAUDISAT 1B
1 26549U 00057E   03017.43942101  .00002360  00000-0  33788-3 0  6689
2 26549  64.5485 134.6107 0058581 244.0802 115.4246 14.77830485124398
AMSAT OSCAR 40
1 26609U 00072B   03014.42373129  .00000025  00000-0  10000-3 0  3042
2 26609   7.9543  70.5875 7935115 133.0894 327.3710  1.25596681 10146
GOES 12
1 26871U 01031A   03017.22389260 -.00000074  00000-0  10000-3 0  7761
2 26871   0.4716  97.7371 0000777  39.9403 313.9601  1.00278668  5519
STARSHINE 3
1 26929U 01043A   03018.32349016  .02145926  60421-5  92179-3 0  6946
2 26929  67.0182  67.9458 0006692 326.4678  33.6221 16.22372457 73873
PCSAT
1 26931U 01043C   03017.54222850  .00000392  00000-0  18695-3 0  3796
2 26931  67.0478 338.0623 0005279 258.2876 101.7634 14.29096869 67774
SAPPHIRE
1 26932U 01043D   03018.22408751  .00000348  00000-0  16887-3 0  3746
2 26932  67.0587 336.0161 0005932 242.6105 117.4392 14.29283123 67898
ENVISAT
1 27386U 02009A   03018.17780988 -.00000799  00000-0 -28011-3 0  8550
2 27386  98.5496  87.1823 0000889  94.8052 265.3227 14.32241866 46252
IDEFIX/ARIANE 42P
1 27422U 02021B   03018.21115530  .00000368  00000-0  16634-3 0  2119
2 27422  98.6999  97.5514 0011891 238.9635 121.0378 14.27952215 36982
NOAA 17
1 27453U 02032A   03017.93076640  .00000368  00000-0  18208-3 0  2716
2 27453  98.7621  89.3001 0012676  88.3432 271.9198 14.23273333 29466
HOT BIRD 6
1 27499U 02038A   03013.80550721  .00000106  00000-0  10000-3 0   665
2 27499   0.0928  32.8693 0008090 290.3889  92.5421  1.00271722  1476
RUBIN 2
1 27605U 02058A   03018.17917347  .00001087  00000-0  19534-3 0   325
2 27605  64.5526 292.5543 0030634 124.0196 236.3818 14.71381413  4197
STS-107
1 27647U 03003A   03018.25000000  .00054034  65467-5  11729-3 0   129
2 27647  39.0161 218.5631 0012449   1.9742 232.4243 15.97705154   247
